#timestamp,LO_Frequency,Hit,StdDev 
1509062415.2,286046999.7,N
1509062435.1,286047005.6,N
1509062436.0,286047005.6,N
1509062455.8,286047009.2,Y
1509062475.6,286047007.7,P
1509062495.5,286047008.2,N
1509062515.3,286047008.3,N
1509062535.2,286047012.2,Y
1509062555.9,286047006.6,P
1509062575.7,286047005.6,P
1509062595.6,286047007.5,P
1509062615.4,286047007.7,Y
1509062635.2,286047006.2,P
1509062655.1,286047004.6,P
1509062656.0,286047004.6,P
1509062675.8,286047014.0,Y
1509062695.6,286047013.5,P
1509062715.5,286047013.9,P
1509062735.3,286047014.3,P
1509062755.2,286047018.5,Y
1509062775.9,286047011.0,P
1509062795.7,286047011.1,P
1509062815.6,286047012.3,P
1509062835.4,286047014.3,Y
1509062855.2,286047004.6,P
1509062875.1,286047006.9,N
1509062876.0,286047006.9,N
1509062895.8,286047007.0,N
1509062915.6,286047005.6,N
1509062935.5,286047007.3,Y
1509062955.3,286046998.3,P
1509062975.1,286047000.5,N
1509062995.9,286046999.6,N
1509063015.7,286046997.4,N
1509063035.5,286046999.0,N
1509063055.4,286046999.9,N
1509063075.2,286046998.6,N
1509063095.0,286046995.2,N
1509063095.9,286046995.2,N
1509063115.8,286046997.7,N
1509063135.6,286046991.7,N
1509063155.4,286046991.8,N
1509063175.3,286046991.6,N
1509063195.1,286046988.2,N
1509063215.8,286046989.9,N
1509063235.7,286046991.0,N
1509063255.5,286046991.0,N
1509063275.3,286046992.2,N
1509063295.2,286046993.6,N
1509063315.0,286046988.6,N
1509063315.9,286046988.6,N
1509063335.8,286046988.9,N
1509063355.6,286046985.7,N
1509063375.4,286046987.8,N
1509063395.3,286046991.4,N
1509063415.1,286046992.7,N
1509063416.0,286046992.7,N
1509063435.8,286046990.9,N
1509063455.7,286046990.6,N
1509063475.5,286046992.9,N
1509063495.3,286046990.3,N
1509063515.2,286046996.3,N
1509063535.9,286046997.6,N
1509063555.7,286046992.9,N
1509063575.6,286046992.8,N
1509063595.4,286046992.9,N
1509063615.2,286046986.0,Y
1509063635.1,286046990.0,P
1509063636.0,286046990.0,P
1509063655.8,286046980.6,P
1509063675.7,286046977.4,Y
1509063695.5,286046985.0,P
1509063715.3,286046983.3,P
1509063735.2,286046983.6,P
1509063755.9,286046981.2,Y
1509063775.7,286046995.8,P
1509063795.6,286046993.8,N
1509063815.4,286046995.9,N
1509063835.2,286046995.3,N
1509063855.1,286046993.5,N
1509063856.0,286046993.5,N
1509063875.8,286046993.7,N
1509063895.6,286046995.5,N
1509063915.5,286046994.1,N
1509063935.3,286046990.6,Y
1509063955.1,286046996.8,P
1509063975.9,286047000.6,N
1509063995.7,286046999.9,N
1509064015.6,286046998.2,N
1509064035.4,286047000.9,N
1509064055.2,286047000.9,N
1509064075.1,286046998.4,N
1509064076.0,286046998.4,N
1509064095.8,286047001.1,N
1509064115.6,286046999.0,N
1509064135.5,286046996.6,N
1509064155.3,286046996.3,N
1509064175.1,286046995.8,N
1509064195.9,286046995.1,N
1509064215.7,286046996.4,N
1509064235.5,286046994.6,N
1509064255.4,286046995.4,N
1509064275.2,286046993.3,N
1509064295.0,286046994.5,N
1509064295.9,286046994.5,N
1509064315.8,286046994.6,N
1509064335.6,286046996.1,N
1509064355.4,286046993.5,N
1509064375.3,286046997.5,N
1509064395.1,286046996.4,N
1509064396.0,286046996.4,N
1509064415.8,286046993.9,N
1509064435.7,286046996.3,N
1509064455.5,286046994.5,N
1509064475.3,286046995.6,N
1509064495.2,286046989.0,Y
1509064515.0,286046998.5,P
1509064515.9,286046998.5,N
1509064535.7,286047007.9,P
1509064555.6,286047012.7,N
1509064575.4,286047023.1,Y
1509064595.3,286047021.1,P
1509064615.1,286047022.8,N
1509064616.0,286047022.8,N
1509064635.8,286047026.0,Y
1509064655.7,286047014.5,P
1509064675.5,286047016.5,P
1509064695.3,286047018.2,P
1509064715.2,286047016.5,Y
1509064735.0,286047001.3,P
1509064735.9,286047001.3,N
1509064755.8,286047003.2,N
1509064775.6,286047003.5,N
1509064795.4,286047008.4,N
1509064815.3,286047008.3,N
1509064835.1,286047008.2,N
1509064836.0,286047008.2,N
1509064855.8,286047008.3,N
1509064875.7,286047005.0,N
1509064895.5,286047003.3,N
1509064915.3,286047004.3,N
1509064935.2,286047005.2,N
1509064955.9,286047003.6,N
1509064975.7,286047001.4,N
1509064995.6,286047003.5,N
1509065015.4,286047005.7,N
1509065035.2,286047007.5,N
1509065055.1,286047006.7,N
1509065056.0,286047006.7,N
1509065075.8,286047006.2,N
1509065095.6,286047008.1,N
1509065115.5,286047008.2,N
1509065135.3,286047007.0,N
1509065155.1,286047006.1,N
1509065175.9,286047010.2,Y
1509065195.7,286047002.3,P
1509065215.5,286047001.1,N
1509065235.4,286047000.5,N
1509065255.2,286047000.3,N
1509065275.0,286046997.0,N
1509065276.0,286046997.0,N
1509065295.8,286046993.7,N
1509065315.6,286046995.1,N
1509065335.4,286046999.2,N
1509065355.3,286046995.8,N
1509065375.1,286046993.4,N
1509065395.8,286046994.7,N
1509065415.7,286046994.9,N
1509065435.5,286046990.1,N
1509065455.4,286046988.2,N
1509065475.2,286046985.2,Y
1509065495.0,286046983.2,P
1509065495.9,286046983.2,N
1509065515.8,286046979.3,P
1509065535.6,286046978.5,Y
1509065555.4,286046988.6,P
1509065575.3,286046989.4,P
1509065595.1,286046985.8,P
1509065615.8,286046986.3,Y
1509065635.7,286046997.5,P
1509065655.5,286046996.6,N
1509065675.3,286046995.3,N
1509065695.2,286046995.4,N
1509065715.0,286046997.3,N
1509065715.9,286046997.3,N
1509065735.7,286046995.3,N
1509065755.6,286046993.7,N
1509065775.4,286046992.2,N
1509065795.3,286046990.4,Y
1509065815.1,286046994.4,P
1509065816.0,286046994.4,P
1509065835.8,286046991.7,P
1509065855.7,286046990.5,Y
1509065875.5,286046996.8,P
1509065895.3,286046996.5,N
1509065915.2,286046996.9,N
1509065935.9,286046995.4,Y
1509065955.7,286047000.0,P
1509065975.6,286047000.0,N
1509065995.4,286047001.6,N
